Time,TemperatureF,DewpointF,PressureIn,WindDirection,WindDirectionDegrees,WindSpeedMPH,WindSpeedGustMPH,Humidity,HourlyPrecipIn,Conditions,Clouds,dailyrainin,SoftwareType,DateUTC
2013-08-01 00:00:00,62.3,51.2,29.92,NW,314,0.0,0.0,67,0.00,,CLR,0.00,VWS V14.01,2013-08-01 05:00:00,
2013-08-01 00:10:00,61.8,51.1,29.92,NW,314,0.0,0.0,68,0.00,,CLR,0.00,VWS V14.01,2013-08-01 05:10:00,
2013-08-01 00:15:00,61.5,51.2,29.93,WNW,295,0.0,4.0,69,0.00,,CLR,0.00,VWS V14.01,2013-08-01 05:15:00,
2013-08-01 00:25:00,60.9,51.5,29.93,WNW,292,0.0,5.0,71,0.00,,CLR,0.00,VWS V14.01,2013-08-01 05:25:00,
2013-08-01 00:30:00,60.7,51.2,29.93,WNW,292,0.0,0.0,71,0.00,,CLR,0.00,VWS V14.01,2013-08-01 05:30:00,
2013-08-01 00:35:00,60.4,51.3,29.93,WNW,292,0.0,3.0,72,0.00,,CLR,0.00,VWS V14.01,2013-08-01 05:35:00,
2013-08-01 00:40:00,60.2,51.2,29.93,WNW,292,0.0,0.0,72,0.00,,CLR,0.00,VWS V14.01,2013-08-01 05:40:00,
2013-08-01 00:45:00,59.9,51.2,29.93,WNW,292,0.0,0.0,73,0.00,,CLR,0.00,VWS V14.01,2013-08-01 05:45:00,
2013-08-01 00:55:00,59.3,51.0,29.93,WNW,292,0.0,0.0,74,0.00,,CLR,0.00,VWS V14.01,2013-08-01 05:55:00,
2013-08-01 01:00:00,59.2,51.3,29.94,WNW,292,0.0,0.0,75,0.00,,CLR,0.00,VWS V14.01,2013-08-01 06:00:00,
2013-08-01 01:10:00,58.9,51.4,29.94,WNW,292,0.0,0.0,76,0.00,,CLR,0.00,VWS V14.01,2013-08-01 06:10:00,
2013-08-01 01:15:00,58.9,51.4,29.93,WNW,292,0.0,2.0,76,0.00,,CLR,0.00,VWS V14.01,2013-08-01 06:15:00,
2013-08-01 01:20:00,58.7,51.2,29.93,WNW,292,0.0,0.0,76,0.00,,CLR,0.00,VWS V14.01,2013-08-01 06:20:00,
2013-08-01 01:25:00,58.6,51.1,29.93,WNW,292,0.0,0.0,76,0.00,,CLR,0.00,VWS V14.01,2013-08-01 06:25:00,
2013-08-01 01:30:00,58.4,51.2,29.93,WNW,292,0.0,0.0,77,0.00,,CLR,0.00,VWS V14.01,2013-08-01 06:30:00,
2013-08-01 01:40:00,58.1,50.9,29.93,WNW,292,0.0,0.0,77,0.00,,CLR,0.00,VWS V14.01,2013-08-01 06:40:00,
2013-08-01 01:45:00,58.0,50.8,29.93,WNW,292,0.0,0.0,77,0.00,,CLR,0.00,VWS V14.01,2013-08-01 06:45:00,
2013-08-01 01:55:00,57.6,50.8,29.93,WNW,292,0.0,0.0,78,0.00,,CLR,0.00,VWS V14.01,2013-08-01 06:55:00,
2013-08-01 02:00:00,57.5,51.0,29.93,WNW,292,0.0,0.0,79,0.00,,CLR,0.00,VWS V14.01,2013-08-01 07:00:00,
2013-08-01 02:05:00,57.3,50.8,29.93,WNW,292,0.0,0.0,79,0.00,,CLR,0.00,VWS V14.01,2013-08-01 07:05:00,
2013-08-01 02:15:00,57.0,50.9,29.93,WNW,292,0.0,0.0,80,0.00,,CLR,0.00,VWS V14.01,2013-08-01 07:15:00,
2013-08-01 02:20:00,56.9,51.1,29.93,WNW,292,0.0,0.0,81,0.00,,CLR,0.00,VWS V14.01,2013-08-01 07:20:00,
2013-08-01 02:25:00,56.7,50.9,29.93,WNW,292,0.0,0.0,81,0.00,,CLR,0.00,VWS V14.01,2013-08-01 07:25:00,
2013-08-01 02:30:00,56.6,50.8,29.93,WNW,292,0.0,0.0,81,0.00,,CLR,0.00,VWS V14.01,2013-08-01 07:30:00,
2013-08-01 02:35:00,56.5,51.1,29.93,WNW,292,0.0,0.0,82,0.00,,CLR,0.00,VWS V14.01,2013-08-01 07:35:00,
2013-08-01 02:45:00,56.2,50.8,29.93,WNW,292,0.0,0.0,82,0.00,,CLR,0.00,VWS V14.01,2013-08-01 07:45:00,
2013-08-01 02:50:00,56.0,50.9,29.93,WNW,292,0.0,0.0,83,0.00,,CLR,0.00,VWS V14.01,2013-08-01 07:50:00,
2013-08-01 02:55:00,55.9,50.8,29.93,WNW,292,0.0,0.0,83,0.00,,CLR,0.00,VWS V14.01,2013-08-01 07:55:00,
2013-08-01 03:05:00,55.7,50.6,29.93,WNW,292,0.0,0.0,83,0.00,,CLR,0.00,VWS V14.01,2013-08-01 08:05:00,
2013-08-01 03:10:00,55.6,50.8,29.93,WNW,292,0.0,0.0,84,0.00,,CLR,0.00,VWS V14.01,2013-08-01 08:10:00,
2013-08-01 03:15:00,55.6,50.8,29.92,WNW,292,0.0,0.0,84,0.00,,CLR,0.00,VWS V14.01,2013-08-01 08:15:00,
2013-08-01 03:25:00,55.3,50.6,29.92,WNW,292,0.0,0.0,84,0.00,,CLR,0.00,VWS V14.01,2013-08-01 08:25:00,
2013-08-01 03:30:00,55.3,50.6,29.92,WNW,292,0.0,0.0,84,0.00,,CLR,0.00,VWS V14.01,2013-08-01 08:30:00,
2013-08-01 03:35:00,55.1,50.7,29.92,WNW,292,0.0,0.0,85,0.00,,CLR,0.00,VWS V14.01,2013-08-01 08:35:00,
2013-08-01 03:50:00,55.0,50.6,29.92,WNW,292,0.0,0.0,85,0.00,,CLR,0.00,VWS V14.01,2013-08-01 08:50:00,
2013-08-01 03:55:00,54.8,50.7,29.92,WNW,292,0.0,0.0,86,0.00,,CLR,0.00,VWS V14.01,2013-08-01 08:55:00,
2013-08-01 04:00:00,54.7,50.6,29.92,WNW,292,0.0,0.0,86,0.00,,CLR,0.00,VWS V14.01,2013-08-01 09:00:00,
2013-08-01 04:20:00,54.5,50.7,29.92,WNW,292,0.0,0.0,87,0.00,,CLR,0.00,VWS V14.01,2013-08-01 09:20:00,
2013-08-01 04:25:00,54.5,50.7,29.92,WNW,292,0.0,0.0,87,0.00,,CLR,0.00,VWS V14.01,2013-08-01 09:25:00,
2013-08-01 04:30:00,54.5,50.7,29.93,WNW,292,0.0,0.0,87,0.00,,CLR,0.00,VWS V14.01,2013-08-01 09:30:00,
2013-08-01 04:35:00,54.5,50.7,29.93,WNW,292,0.0,0.0,87,0.00,,CLR,0.00,VWS V14.01,2013-08-01 09:35:00,
2013-08-01 04:45:00,54.4,50.6,29.93,WNW,292,0.0,0.0,87,0.00,,CLR,0.00,VWS V14.01,2013-08-01 09:45:00,
2013-08-01 04:55:00,54.4,50.6,29.93,WNW,292,0.0,0.0,87,0.00,,CLR,0.00,VWS V14.01,2013-08-01 09:55:00,
2013-08-01 05:25:00,53.9,50.4,29.94,WNW,292,0.0,0.0,88,0.00,,CLR,0.00,VWS V14.01,2013-08-01 10:25:00,
2013-08-01 05:30:00,53.9,50.4,29.93,WNW,292,0.0,0.0,88,0.00,,CLR,0.00,VWS V14.01,2013-08-01 10:30:00,
2013-08-01 05:35:00,53.8,50.3,29.93,WNW,292,0.0,0.0,88,0.00,,CLR,0.00,VWS V14.01,2013-08-01 10:35:00,
2013-08-01 05:40:00,53.8,50.3,29.93,WNW,292,0.0,0.0,88,0.00,,CLR,0.00,VWS V14.01,2013-08-01 10:40:00,
2013-08-01 05:45:00,53.6,50.1,29.93,WNW,292,0.0,0.0,88,0.00,,CLR,0.00,VWS V14.01,2013-08-01 10:45:00,
2013-08-01 05:50:00,53.6,50.1,29.93,WNW,292,0.0,0.0,88,0.00,,CLR,0.00,VWS V14.01,2013-08-01 10:50:00,
2013-08-01 05:55:00,53.5,50.0,29.93,WNW,292,0.0,0.0,88,0.00,,CLR,0.00,VWS V14.01,2013-08-01 10:55:00,
2013-08-01 06:00:00,53.5,50.0,29.94,WNW,292,0.0,0.0,88,0.00,,CLR,0.00,VWS V14.01,2013-08-01 11:00:00,
2013-08-01 06:15:00,53.3,49.8,29.94,WNW,292,0.0,0.0,88,0.00,,CLR,0.00,VWS V14.01,2013-08-01 11:15:00,
2013-08-01 06:20:00,53.2,50.0,29.94,WNW,292,0.0,0.0,89,0.00,,CLR,0.00,VWS V14.01,2013-08-01 11:20:00,
2013-08-01 06:50:00,53.8,50.9,29.94,WNW,292,0.0,0.0,90,0.00,,CLR,0.00,VWS V14.01,2013-08-01 11:50:00,
2013-08-01 07:00:00,54.4,51.5,29.93,WNW,292,0.0,0.0,90,0.00,,CLR,0.00,VWS V14.01,2013-08-01 12:00:00,
2013-08-01 07:05:00,54.5,51.6,29.93,WNW,292,0.0,0.0,90,0.00,,CLR,0.00,VWS V14.01,2013-08-01 12:05:00,
2013-08-01 07:10:00,54.7,51.8,29.93,WNW,292,0.0,0.0,90,0.00,,CLR,0.00,VWS V14.01,2013-08-01 12:10:00,
2013-08-01 07:15:00,55.0,52.1,29.94,WNW,292,0.0,0.0,90,0.00,,CLR,0.00,VWS V14.01,2013-08-01 12:15:00,
2013-08-01 07:20:00,55.3,52.4,29.94,WNW,292,0.0,0.0,90,0.00,,CLR,0.00,VWS V14.01,2013-08-01 12:20:00,
2013-08-01 07:30:00,55.9,53.0,29.94,WNW,292,0.0,0.0,90,0.00,,CLR,0.00,VWS V14.01,2013-08-01 12:30:00,
2013-08-01 07:35:00,56.5,53.6,29.94,WNW,292,0.0,0.0,90,0.00,,CLR,0.00,VWS V14.01,2013-08-01 12:35:00,
2013-08-01 07:40:00,57.0,53.8,29.94,WNW,292,0.0,0.0,89,0.00,,CLR,0.00,VWS V14.01,2013-08-01 12:40:00,
2013-08-01 07:45:00,57.6,54.1,29.94,WNW,292,0.0,0.0,88,0.00,,CLR,0.00,VWS V14.01,2013-08-01 12:45:00,
2013-08-01 07:50:00,58.1,54.3,29.94,WNW,292,0.0,0.0,87,0.00,,CLR,0.00,VWS V14.01,2013-08-01 12:50:00,
2013-08-01 08:00:00,59.5,54.7,29.94,WNW,287,0.0,7.0,84,0.00,,CLR,0.00,VWS V14.01,2013-08-01 13:00:00,
2013-08-01 08:05:00,60.1,54.6,29.94,WNW,286,0.0,2.0,82,0.00,,CLR,0.00,VWS V14.01,2013-08-01 13:05:00,
2013-08-01 08:30:00,63.4,53.8,29.93,WNW,294,0.0,4.0,71,0.00,,CLR,0.00,VWS V14.01,2013-08-01 13:30:00,
2013-08-01 08:35:00,64.0,53.6,29.93,WNW,290,0.0,5.0,69,0.00,,CLR,0.00,VWS V14.01,2013-08-01 13:35:00,
2013-08-01 08:45:00,65.5,52.6,29.93,WNW,295,6.0,12.0,63,0.00,,CLR,0.00,VWS V14.01,2013-08-01 13:45:00,
2013-08-01 08:50:00,66.4,53.0,29.93,WNW,288,0.0,7.0,62,0.00,,CLR,0.00,VWS V14.01,2013-08-01 13:50:00,
2013-08-01 08:55:00,67.3,53.8,29.93,NW,323,0.0,6.0,62,0.00,,CLR,0.00,VWS V14.01,2013-08-01 13:55:00,
2013-08-01 09:00:00,68.1,53.2,29.92,NNW,336,6.0,10.0,59,0.00,,CLR,0.00,VWS V14.01,2013-08-01 14:00:00,
2013-08-01 09:05:00,68.9,53.5,29.92,WNW,284,10.0,10.0,58,0.00,,CLR,0.00,VWS V14.01,2013-08-01 14:05:00,
2013-08-01 09:10:00,69.4,53.0,29.92,NW,310,5.0,10.0,56,0.00,,CLR,0.00,VWS V14.01,2013-08-01 14:10:00,
2013-08-01 09:15:00,69.8,52.9,29.92,NW,318,0.0,7.0,55,0.00,,CLR,0.00,VWS V14.01,2013-08-01 14:15:00,
2013-08-01 09:20:00,70.1,53.7,29.92,NNW,327,4.0,6.0,56,0.00,,CLR,0.00,VWS V14.01,2013-08-01 14:20:00,
2013-08-01 09:30:00,70.4,54.0,29.92,NW,319,0.0,4.0,56,0.00,,CLR,0.00,VWS V14.01,2013-08-01 14:30:00,
2013-08-01 09:45:00,71.1,53.6,29.92,NNW,340,0.0,9.0,54,0.00,,CLR,0.00,VWS V14.01,2013-08-01 14:45:00,
2013-08-01 10:00:00,71.6,53.6,29.92,North,355,0.0,6.0,53,0.00,,CLR,0.00,VWS V14.01,2013-08-01 15:00:00,
2013-08-01 10:15:00,72.5,53.9,29.92,WNW,301,3.0,6.0,52,0.00,,CLR,0.00,VWS V14.01,2013-08-01 15:15:00,
2013-08-01 10:20:00,72.5,52.8,29.92,NNW,331,0.0,10.0,50,0.00,,CLR,0.00,VWS V14.01,2013-08-01 15:20:00,
2013-08-01 10:30:00,72.8,53.1,29.92,WNW,302,2.0,6.0,50,0.00,,CLR,0.00,VWS V14.01,2013-08-01 15:30:00,
2013-08-01 10:35:00,73.0,53.3,29.92,WNW,287,0.0,11.0,50,0.00,,CLR,0.00,VWS V14.01,2013-08-01 15:35:00,
2013-08-01 10:45:00,73.5,53.2,29.92,North,350,3.0,6.0,49,0.00,,CLR,0.00,VWS V14.01,2013-08-01 15:45:00,
2013-08-01 11:00:00,73.9,52.4,29.92,NNW,330,0.0,7.0,47,0.00,,CLR,0.00,VWS V14.01,2013-08-01 16:00:00,
2013-08-01 11:10:00,73.9,52.4,29.92,NW,307,0.0,9.0,47,0.00,,CLR,0.00,VWS V14.01,2013-08-01 16:10:00,
2013-08-01 11:15:00,74.0,52.5,29.92,NNW,342,0.0,7.0,47,0.00,,CLR,0.00,VWS V14.01,2013-08-01 16:15:00,
2013-08-01 11:30:00,74.7,53.2,29.92,NNW,331,0.0,9.0,47,0.00,,CLR,0.00,VWS V14.01,2013-08-01 16:30:00,
2013-08-01 11:40:00,74.7,53.7,29.92,WNW,283,4.0,7.0,48,0.00,,CLR,0.00,VWS V14.01,2013-08-01 16:40:00,
2013-08-01 11:50:00,75.3,53.1,29.91,NW,325,0.0,3.0,46,0.00,,CLR,0.00,VWS V14.01,2013-08-01 16:50:00,
2013-08-01 12:00:00,75.4,53.8,29.91,NNW,338,0.0,4.0,47,0.00,,CLR,0.00,VWS V14.01,2013-08-01 17:00:00,
2013-08-01 12:15:00,76.3,54.6,29.91,WNW,282,0.0,6.0,47,0.00,,CLR,0.00,VWS V14.01,2013-08-01 17:15:00,
2013-08-01 12:20:00,76.8,54.5,29.91,WNW,298,4.0,9.0,46,0.00,,CLR,0.00,VWS V14.01,2013-08-01 17:20:00,
2013-08-01 12:25:00,77.4,53.2,29.91,WNW,294,0.0,6.0,43,0.00,,CLR,0.00,VWS V14.01,2013-08-01 17:25:00,
2013-08-01 12:30:00,77.7,54.1,29.90,WSW,240,0.0,11.0,44,0.00,,CLR,0.00,VWS V14.01,2013-08-01 17:30:00,
2013-08-01 12:35:00,78.1,52.5,29.90,WNW,282,0.0,10.0,41,0.00,,CLR,0.00,VWS V14.01,2013-08-01 17:35:00,
2013-08-01 12:45:00,78.3,51.3,29.90,West,270,7.0,13.0,39,0.00,,CLR,0.00,VWS V14.01,2013-08-01 17:45:00,
2013-08-01 12:50:00,78.3,51.3,29.90,WNW,296,4.0,13.0,39,0.00,,CLR,0.00,VWS V14.01,2013-08-01 17:50:00,
2013-08-01 12:55:00,78.3,51.3,29.90,NNW,329,2.0,11.0,39,0.00,,CLR,0.00,VWS V14.01,2013-08-01 17:55:00,
2013-08-01 13:00:00,77.9,51.7,29.89,NW,322,0.0,10.0,40,0.00,,FEW090,0.00,VWS V14.01,2013-08-01 18:00:00,
2013-08-01 13:05:00,78.1,51.8,29.89,WNW,282,1.0,10.0,40,0.00,,FEW090,0.00,VWS V14.01,2013-08-01 18:05:00,
2013-08-01 13:15:00,78.1,52.5,29.88,NNW,328,1.0,7.0,41,0.00,,FEW090,0.00,VWS V14.01,2013-08-01 18:15:00,
2013-08-01 13:20:00,78.1,52.5,29.88,WNW,295,0.0,9.0,41,0.00,,FEW090,0.00,VWS V14.01,2013-08-01 18:20:00,
2013-08-01 13:30:00,78.6,52.3,29.88,WNW,292,0.0,5.0,40,0.00,,FEW090,0.00,VWS V14.01,2013-08-01 18:30:00,
2013-08-01 13:35:00,79.4,53.7,29.88,WNW,292,0.0,7.0,41,0.00,,FEW090,0.00,VWS V14.01,2013-08-01 18:35:00,
2013-08-01 13:45:00,80.3,52.4,29.87,SW,220,1.0,5.0,38,0.00,,FEW090,0.00,VWS V14.01,2013-08-01 18:45:00,
2013-08-01 13:55:00,80.9,52.9,29.87,WNW,291,0.0,7.0,38,0.00,,FEW090,0.00,VWS V14.01,2013-08-01 18:55:00,
2013-08-01 14:00:00,81.1,53.1,29.87,SW,226,0.0,2.0,38,0.00,,CLR,0.00,VWS V14.01,2013-08-01 19:00:00,
2013-08-01 14:10:00,81.2,53.2,29.87,WNW,286,0.0,11.0,38,0.00,,CLR,0.00,VWS V14.01,2013-08-01 19:10:00,
2013-08-01 14:15:00,81.1,53.1,29.87,SW,230,1.0,9.0,38,0.00,,CLR,0.00,VWS V14.01,2013-08-01 19:15:00,
2013-08-01 14:25:00,80.5,54.7,29.87,WNW,296,0.0,12.0,41,0.00,,CLR,0.00,VWS V14.01,2013-08-01 19:25:00,
2013-08-01 14:30:00,80.3,51.7,29.86,West,271,0.0,13.0,37,0.00,,CLR,0.00,VWS V14.01,2013-08-01 19:30:00,
2013-08-01 14:35:00,80.5,51.9,29.86,WNW,294,0.0,10.0,37,0.00,,CLR,0.00,VWS V14.01,2013-08-01 19:35:00,
2013-08-01 14:45:00,80.1,53.6,29.86,WNW,291,0.0,9.0,40,0.00,,CLR,0.00,VWS V14.01,2013-08-01 19:45:00,
2013-08-01 14:55:00,80.9,53.7,29.86,NW,304,4.0,17.0,39,0.00,,CLR,0.00,VWS V14.01,2013-08-01 19:55:00,
2013-08-01 15:05:00,80.3,51.7,29.86,NW,322,0.0,6.0,37,0.00,,FEW070,0.00,VWS V14.01,2013-08-01 20:05:00,
2013-08-01 15:10:00,80.3,53.1,29.86,WNW,292,9.0,9.0,39,0.00,,FEW070,0.00,VWS V14.01,2013-08-01 20:10:00,
2013-08-01 15:35:00,80.7,54.2,29.84,NW,306,0.0,6.0,40,0.00,,FEW070,0.00,VWS V14.01,2013-08-01 20:35:00,
2013-08-01 15:40:00,80.5,54.0,29.84,West,275,0.0,9.0,40,0.00,,FEW070,0.00,VWS V14.01,2013-08-01 20:40:00,
2013-08-01 15:50:00,79.8,54.7,29.84,WNW,301,3.0,10.0,42,0.00,,FEW070,0.00,VWS V14.01,2013-08-01 20:50:00,
2013-08-01 15:55:00,79.4,53.7,29.84,NW,319,1.0,3.0,41,0.00,,FEW070,0.00,VWS V14.01,2013-08-01 20:55:00,
2013-08-01 16:00:00,78.8,53.8,29.84,West,275,0.0,3.0,42,0.00,,BKN065,0.00,VWS V14.01,2013-08-01 21:00:00,
2013-08-01 16:15:00,79.2,54.2,29.84,NW,308,0.0,6.0,42,0.00,,BKN065,0.00,VWS V14.01,2013-08-01 21:15:00,
2013-08-01 16:20:00,79.0,54.6,29.84,WNW,300,0.0,2.0,43,0.00,,BKN065,0.00,VWS V14.01,2013-08-01 21:20:00,
2013-08-01 16:30:00,79.0,56.5,29.83,SW,223,0.0,0.0,46,0.00,,BKN065,0.00,VWS V14.01,2013-08-01 21:30:00,
2013-08-01 16:35:00,79.2,55.4,29.83,SW,229,0.0,0.0,44,0.00,,BKN065,0.00,VWS V14.01,2013-08-01 21:35:00,
2013-08-01 16:40:00,79.6,55.2,29.83,SW,229,0.0,6.0,43,0.00,,BKN065,0.00,VWS V14.01,2013-08-01 21:40:00,
2013-08-01 16:45:00,79.8,55.3,29.83,WNW,294,2.0,3.0,43,0.00,,BKN065,0.00,VWS V14.01,2013-08-01 21:45:00,
2013-08-01 16:50:00,79.6,54.5,29.83,SW,221,3.0,7.0,42,0.00,,BKN065,0.00,VWS V14.01,2013-08-01 21:50:00,
2013-08-01 16:55:00,79.4,55.0,29.83,WNW,297,0.0,4.0,43,0.00,,BKN065,0.00,VWS V14.01,2013-08-01 21:55:00,
2013-08-01 17:05:00,79.2,55.4,29.83,SW,229,0.0,3.0,44,0.00,,BKN085,0.00,VWS V14.01,2013-08-01 22:05:00,
2013-08-01 17:15:00,79.4,55.0,29.82,SSW,213,3.0,5.0,43,0.00,,BKN085,0.00,VWS V14.01,2013-08-01 22:15:00,
2013-08-01 17:20:00,79.8,55.3,29.82,SW,230,0.0,4.0,43,0.00,,BKN085,0.00,VWS V14.01,2013-08-01 22:20:00,
2013-08-01 17:25:00,79.8,55.3,29.82,West,281,0.0,2.0,43,0.00,,BKN085,0.00,VWS V14.01,2013-08-01 22:25:00,
2013-08-01 17:30:00,79.8,56.0,29.81,SW,230,0.0,9.0,44,0.00,,BKN085,0.00,VWS V14.01,2013-08-01 22:30:00,
2013-08-01 17:35:00,79.6,55.2,29.81,South,190,0.0,6.0,43,0.00,,BKN085,0.00,VWS V14.01,2013-08-01 22:35:00,
2013-08-01 17:45:00,79.2,55.4,29.80,West,266,0.0,2.0,44,0.00,,BKN085,0.00,VWS V14.01,2013-08-01 22:45:00,
2013-08-01 17:55:00,78.8,55.1,29.80,SW,230,0.0,2.0,44,0.00,,BKN085,0.00,VWS V14.01,2013-08-01 22:55:00,
2013-08-01 18:00:00,78.6,55.5,29.80,WSW,243,1.0,3.0,45,0.00,,CLR,0.00,VWS V14.01,2013-08-01 23:00:00,
2013-08-01 18:10:00,78.1,55.7,29.80,WSW,248,0.0,1.0,46,0.00,,CLR,0.00,VWS V14.01,2013-08-01 23:10:00,
2013-08-01 18:20:00,77.9,54.9,29.80,SW,229,0.0,5.0,45,0.00,,CLR,0.00,VWS V14.01,2013-08-01 23:20:00,
2013-08-01 18:25:00,77.9,55.5,29.80,SW,229,0.0,4.0,46,0.00,,CLR,0.00,VWS V14.01,2013-08-01 23:25:00,
2013-08-01 18:35:00,77.7,55.9,29.80,SW,225,0.0,1.0,47,0.00,,CLR,0.00,VWS V14.01,2013-08-01 23:35:00,
2013-08-01 18:40:00,77.7,55.3,29.80,WSW,242,0.0,6.0,46,0.00,,CLR,0.00,VWS V14.01,2013-08-01 23:40:00,
2013-08-01 18:45:00,77.6,55.2,29.80,SW,229,0.0,6.0,46,0.00,,CLR,0.00,VWS V14.01,2013-08-01 23:45:00,
2013-08-01 18:50:00,77.4,55.0,29.80,SW,221,0.0,1.0,46,0.00,,CLR,0.00,VWS V14.01,2013-08-01 23:50:00,
2013-08-01 18:55:00,77.4,55.6,29.80,SW,235,0.0,9.0,47,0.00,,CLR,0.00,VWS V14.01,2013-08-01 23:55:00,
2013-08-01 19:00:00,77.2,55.4,29.80,WSW,239,0.0,5.0,47,0.00,,CLR,0.00,VWS V14.01,2013-08-02 00:00:00,
2013-08-01 19:15:00,76.8,55.7,29.79,SW,227,0.0,3.0,48,0.00,,CLR,0.00,VWS V14.01,2013-08-02 00:15:00,
2013-08-01 19:25:00,76.7,56.1,29.79,SW,236,0.0,5.0,49,0.00,,CLR,0.00,VWS V14.01,2013-08-02 00:25:00,
2013-08-01 19:30:00,76.7,55.5,29.78,SW,226,0.0,1.0,48,0.00,,CLR,0.00,VWS V14.01,2013-08-02 00:30:00,
2013-08-01 19:40:00,76.5,55.9,29.78,SW,217,0.0,2.0,49,0.00,,CLR,0.00,VWS V14.01,2013-08-02 00:40:00,
2013-08-01 19:45:00,76.5,56.5,29.77,SW,221,3.0,3.0,50,0.00,,CLR,0.00,VWS V14.01,2013-08-02 00:45:00,
2013-08-01 19:50:00,76.3,56.3,29.77,SW,221,0.0,3.0,50,0.00,,CLR,0.00,VWS V14.01,2013-08-02 00:50:00,
2013-08-01 19:55:00,76.1,56.1,29.77,SW,221,0.0,0.0,50,0.00,,CLR,0.00,VWS V14.01,2013-08-02 00:55:00,
2013-08-01 20:00:00,76.0,56.0,29.77,SW,221,0.0,1.0,50,0.00,,SCT055,0.00,VWS V14.01,2013-08-02 01:00:00,
2013-08-01 20:05:00,76.0,57.1,29.77,SW,221,0.0,0.0,52,0.00,,SCT055,0.00,VWS V14.01,2013-08-02 01:05:00,
2013-08-01 20:15:00,75.4,57.6,29.77,SW,221,0.0,0.0,54,0.00,,SCT055,0.00,VWS V14.01,2013-08-02 01:15:00,
2013-08-01 20:20:00,74.9,57.7,29.77,SW,221,0.0,0.0,55,0.00,,SCT055,0.00,VWS V14.01,2013-08-02 01:20:00,
2013-08-01 20:25:00,74.6,57.4,29.77,SW,221,0.0,0.0,55,0.00,,SCT055,0.00,VWS V14.01,2013-08-02 01:25:00,
2013-08-01 20:35:00,73.5,56.9,29.76,SW,221,0.0,0.0,56,0.00,,SCT055,0.00,VWS V14.01,2013-08-02 01:35:00,
2013-08-01 20:45:00,72.7,57.1,29.76,SW,221,0.0,0.0,58,0.00,,SCT055,0.00,VWS V14.01,2013-08-02 01:45:00,
2013-08-01 20:50:00,72.3,57.2,29.76,SW,221,0.0,0.0,59,0.00,,SCT055,0.00,VWS V14.01,2013-08-02 01:50:00,
2013-08-01 20:55:00,71.8,57.6,29.76,SW,221,0.0,0.0,61,0.00,,SCT055,0.00,VWS V14.01,2013-08-02 01:55:00,
2013-08-01 21:00:00,71.5,57.4,29.76,SW,221,0.0,0.0,61,0.00,,CLR,0.00,VWS V14.01,2013-08-02 02:00:00,
2013-08-01 21:05:00,71.1,57.4,29.76,SW,221,0.0,0.0,62,0.00,,CLR,0.00,VWS V14.01,2013-08-02 02:05:00,
2013-08-01 21:15:00,70.3,57.6,29.76,SW,221,0.0,0.0,64,0.00,,CLR,0.00,VWS V14.01,2013-08-02 02:15:00,
2013-08-01 21:20:00,69.8,57.5,29.76,SW,221,0.0,0.0,65,0.00,,CLR,0.00,VWS V14.01,2013-08-02 02:20:00,
2013-08-01 21:25:00,69.4,57.6,29.76,SW,221,0.0,0.0,66,0.00,,CLR,0.00,VWS V14.01,2013-08-02 02:25:00,
2013-08-01 21:30:00,69.3,57.9,29.77,SW,221,0.0,0.0,67,0.00,,CLR,0.00,VWS V14.01,2013-08-02 02:30:00,
2013-08-01 21:40:00,68.8,57.8,29.77,SW,221,0.0,0.0,68,0.00,,CLR,0.00,VWS V14.01,2013-08-02 02:40:00,
2013-08-01 21:55:00,67.9,57.8,29.77,SW,221,0.0,0.0,70,0.00,,CLR,0.00,VWS V14.01,2013-08-02 02:55:00,
2013-08-01 22:05:00,67.6,57.9,29.77,SW,221,0.0,0.0,71,0.00,,BKN075,0.00,VWS V14.01,2013-08-02 03:05:00,
2013-08-01 22:10:00,67.4,58.1,29.77,SW,221,0.0,0.0,72,0.00,,BKN075,0.00,VWS V14.01,2013-08-02 03:10:00,
2013-08-01 22:20:00,66.9,58.3,29.77,SW,221,0.0,0.0,74,0.00,,BKN075,0.00,VWS V14.01,2013-08-02 03:20:00,
2013-08-01 22:25:00,66.8,58.3,29.77,SW,221,0.0,0.0,74,0.00,,BKN075,0.00,VWS V14.01,2013-08-02 03:25:00,
2013-08-01 22:35:00,66.4,58.2,29.77,SW,221,0.0,0.0,75,0.00,,BKN075,0.00,VWS V14.01,2013-08-02 03:35:00,
2013-08-01 22:40:00,66.3,58.2,29.77,SW,221,0.0,0.0,75,0.00,,BKN075,0.00,VWS V14.01,2013-08-02 03:40:00,
2013-08-01 22:45:00,66.1,58.3,29.77,SW,221,0.0,0.0,76,0.00,,BKN075,0.00,VWS V14.01,2013-08-02 03:45:00,
2013-08-01 22:55:00,66.0,58.6,29.77,SW,221,0.0,0.0,77,0.00,,BKN075,0.00,VWS V14.01,2013-08-02 03:55:00,
2013-08-01 23:00:00,65.8,58.4,29.77,SW,221,0.0,0.0,77,0.00,,BKN060,0.00,VWS V14.01,2013-08-02 04:00:00,
2013-08-01 23:05:00,65.6,58.6,29.77,SW,221,0.0,0.0,78,0.00,,BKN060,0.00,VWS V14.01,2013-08-02 04:05:00,
2013-08-01 23:10:00,65.5,58.8,29.77,SW,221,0.0,0.0,79,0.00,,BKN060,0.00,VWS V14.01,2013-08-02 04:10:00,
2013-08-01 23:15:00,65.3,58.6,29.77,SW,221,0.0,0.0,79,0.00,,BKN060,0.00,VWS V14.01,2013-08-02 04:15:00,
2013-08-01 23:20:00,65.2,58.5,29.77,SW,221,0.0,0.0,79,0.00,,BKN060,0.00,VWS V14.01,2013-08-02 04:20:00,
2013-08-01 23:25:00,65.0,58.7,29.77,SW,221,0.0,0.0,80,0.00,,BKN060,0.00,VWS V14.01,2013-08-02 04:25:00,
2013-08-01 23:30:00,64.7,58.4,29.77,SW,221,0.0,0.0,80,0.00,,BKN060,0.00,VWS V14.01,2013-08-02 04:30:00,
2013-08-01 23:40:00,64.3,58.3,29.77,NW,321,0.0,0.0,81,0.00,,BKN060,0.00,VWS V14.01,2013-08-02 04:40:00,
2013-08-01 23:45:00,64.3,58.3,29.77,NW,321,0.0,0.0,81,0.00,,BKN060,0.00,VWS V14.01,2013-08-02 04:45:00,
2013-08-01 23:50:00,64.2,58.3,29.77,NW,321,0.0,0.0,81,0.00,,BKN060,0.00,VWS V14.01,2013-08-02 04:50:00,
2013-08-01 23:55:00,64.2,58.6,29.77,NW,321,0.0,0.0,82,0.00,,BKN060,0.00,VWS V14.01,2013-08-02 04:55:00,